Alpine, TX

7:38 AM CST on January 23, 2017 (GMT -0600)
Alpine

Weather History for KE38 - September, 2013

Change the Weather History Date:

Sunday, September 8, 2013

  Actual Average (KMRF) Record (KMRF)
Temperature  
Mean Temperature 72 °F -  
Max Temperature 86 °F 81 °F 89 °F (1999)
Min Temperature 58 °F 54 °F 42 °F (2004)
Cooling Degree Days 7    
Growing Degree Days 22 (Base 50)    
Moisture  
Dew Point 57 °F    
Average Humidity 64    
Maximum Humidity 85    
Minimum Humidity 33    
Precipitation  
Precipitation 0.37 in - - ()
Sea Level Pressure  
Sea Level Pressure 30.13 in    
Wind  
Wind Speed 4 mph (SSE)    
Max Wind Speed 20 mph    
Max Gust Speed 23 mph    
Visibility 10 miles    
Events Thunderstorm    
Averages and records for this station are not official NWS values.
T = Trace of Precipitation, MM = Missing Value Source: NWS Daily Summary

Daily Weather History Graph

Daily Weather History Graph

Search for Another Location

Airport or City:

Trip Planner

Search our weather history database for the weather conditions in past years. The results will help you decide how hot, cold, wet, or windy it might be!

Date:

Astronomy

Sep. 08, 2013 Rise Set
Actual Time 7:35 AM CDT 8:08 PM CDT
Civil Twilight 7:11 AM CDT 8:32 PM CDT
Nautical Twilight 6:42 AM CDT 9:01 PM CDT
Astronomical Twilight 6:13 AM CDT 9:29 PM CDT
Moon 10:37 AM CDT (9/8) 10:04 PM CDT (9/8)
Length of Visible Light 13h 21m
Length of Day
12h 33m
Waxing Crescent, 11% of the Moon is Illuminated
Sep 8
Waxing Crescent
Sep 12
First Quarter
Sep 19
Full
Sep 26
Last Quarter
Oct 4
New

Hourly Weather History & Observations

Time (CDT) Temp. Heat Index Dew Point Humidity Pressure Visibility Wind Dir Wind Speed Gust Speed Precip Events Conditions
12:15 AM 73.9 °F - 54.3 °F 50% 30.19 in 10.0 mi Calm Calm - N/A   Clear
12:35 AM 68.4 °F - 52.7 °F 57% 30.19 in 10.0 mi Calm Calm - N/A   Clear
12:55 AM 67.3 °F - 52.5 °F 59% 30.19 in 10.0 mi Calm Calm - N/A   Clear
1:15 AM 65.8 °F - 52.3 °F 62% 30.19 in 10.0 mi Calm Calm - N/A   Clear
1:35 AM 68.7 °F - 53.8 °F 59% 30.19 in 10.0 mi Calm Calm - N/A   Clear
1:55 AM 66.6 °F - 53.4 °F 63% 30.18 in 10.0 mi Calm Calm - N/A   Clear
2:15 AM 66.4 °F - 53.4 °F 63% 30.18 in 10.0 mi Calm Calm - N/A   Clear
2:35 AM 67.5 °F - 53.6 °F 61% 30.17 in 10.0 mi Calm Calm - N/A   Clear
2:55 AM 65.3 °F - 53.1 °F 65% 30.17 in 10.0 mi NNW 4.6 mph - N/A   Clear
3:15 AM 66.2 °F - 53.8 °F 64% 30.17 in 10.0 mi Calm Calm - N/A   Clear
3:35 AM 64.8 °F - 53.8 °F 68% 30.17 in 10.0 mi ENE 4.6 mph - N/A   Clear
3:55 AM 66.7 °F - 55.6 °F 67% 30.17 in 10.0 mi Calm Calm - N/A   Clear
4:15 AM 62.6 °F - 53.6 °F 72% 30.15 in 10.0 mi WSW 9.2 mph - N/A   Clear
4:35 AM 63.9 °F - 55.0 °F 73% 30.15 in 10.0 mi West 6.9 mph - N/A   Clear
4:55 AM 62.8 °F - 54.7 °F 75% 30.15 in 10.0 mi West 4.6 mph - N/A   Clear
5:15 AM 63.3 °F - 55.2 °F 75% 30.15 in 10.0 mi Calm Calm - N/A   Clear
5:35 AM 62.6 °F - 55.4 °F 77% 30.15 in 10.0 mi West 5.8 mph - N/A   Clear
5:55 AM 61.0 °F - 54.9 °F 80% 30.15 in 10.0 mi WSW 5.8 mph - N/A   Clear
6:15 AM 60.8 °F - 54.5 °F 80% 30.15 in 10.0 mi WSW 4.6 mph - N/A   Clear
6:35 AM 60.4 °F - 54.1 °F 80% 30.15 in 10.0 mi SW 3.5 mph - N/A   Clear
6:55 AM 59.9 °F - 54.0 °F 81% 30.16 in 10.0 mi Calm Calm - N/A   Clear
7:15 AM 59.7 °F - 54.1 °F 82% 30.16 in 10.0 mi South 3.5 mph - N/A   Clear
7:35 AM 60.3 °F - 54.5 °F 81% 30.16 in 10.0 mi Calm Calm - N/A   Clear
7:55 AM 58.6 °F - 54.0 °F 84% 30.17 in 10.0 mi WSW 4.6 mph - N/A   Clear
8:15 AM 61.9 °F - 55.4 °F 79% 30.16 in 10.0 mi WSW 4.6 mph - N/A   Clear
8:35 AM 66.9 °F - 57.2 °F 71% 30.16 in 10.0 mi WSW 4.6 mph - N/A   Clear
8:55 AM 69.3 °F - 58.6 °F 69% 30.16 in 10.0 mi Calm Calm - N/A   Clear
9:15 AM 70.9 °F - 59.0 °F 66% 30.16 in 10.0 mi Calm Calm - N/A   Clear
9:35 AM 72.1 °F - 59.0 °F 63% 30.17 in 10.0 mi Calm Calm - N/A   Clear
9:55 AM 74.3 °F - 59.5 °F 60% 30.17 in 10.0 mi ESE 5.8 mph - N/A   Clear
10:15 AM 76.3 °F - 59.2 °F 55% 30.17 in 10.0 mi East 6.9 mph - N/A   Clear
10:35 AM 77.2 °F - 59.0 °F 53% 30.17 in 10.0 mi East 9.2 mph - N/A   Clear
10:55 AM 77.9 °F - 59.0 °F 52% 30.17 in 10.0 mi East 11.5 mph 17.3 mph N/A   Clear
11:15 AM 76.5 °F - 58.1 °F 53% 30.17 in 10.0 mi ESE 11.5 mph 17.3 mph N/A   Clear
11:35 AM 78.6 °F - 59.5 °F 52% 30.17 in 10.0 mi East 12.7 mph 18.4 mph N/A   Clear
11:55 AM 79.2 °F - 59.4 °F 51% 30.17 in 10.0 mi ESE 6.9 mph - N/A   Clear
12:15 PM 80.4 °F 80.9 °F 58.6 °F 47% 30.16 in 10.0 mi ESE 11.5 mph 17.3 mph N/A   Clear
12:35 PM 81.1 °F 81.3 °F 58.1 °F 45% 30.15 in 10.0 mi East 12.7 mph - N/A   Scattered Clouds
12:55 PM 82.0 °F 82.0 °F 58.1 °F 44% 30.15 in 10.0 mi SE 10.4 mph - N/A   Scattered Clouds
1:15 PM 83.5 °F 82.8 °F 56.8 °F 40% 30.14 in 10.0 mi East 10.4 mph - N/A   Scattered Clouds
1:35 PM 84.7 °F 83.4 °F 55.0 °F 36% 30.13 in 10.0 mi ESE 5.8 mph - N/A   Scattered Clouds
1:55 PM 84.0 °F 83.0 °F 56.1 °F 38% 30.12 in 10.0 mi SE 11.5 mph 17.3 mph N/A   Scattered Clouds
2:15 PM 82.0 °F 81.5 °F 55.2 °F 40% 30.11 in 10.0 mi East 8.1 mph 20.7 mph N/A   Mostly Cloudy
2:35 PM 84.6 °F 83.4 °F 55.8 °F 37% 30.11 in 10.0 mi East 5.8 mph 9.2 mph N/A   Scattered Clouds
2:55 PM 84.6 °F 83.1 °F 54.3 °F 35% 30.10 in 10.0 mi SSE 8.1 mph 17.3 mph N/A   Clear
3:15 PM 85.5 °F 84.0 °F 54.9 °F 35% 30.08 in 10.0 mi SSE 5.8 mph - N/A   Scattered Clouds
3:35 PM 86.4 °F 84.7 °F 54.7 °F 34% 30.07 in 10.0 mi ESE 9.2 mph 19.6 mph N/A   Scattered Clouds
3:55 PM 85.1 °F 83.8 °F 55.0 °F 36% 30.07 in 10.0 mi ESE 12.7 mph 21.9 mph N/A   Scattered Clouds
4:15 PM 84.7 °F - 52.7 °F 33% 30.06 in 10.0 mi East 8.1 mph - N/A   Clear
4:35 PM 83.8 °F - 52.0 °F 33% 30.05 in 10.0 mi Calm Calm - N/A Thunderstorm Scattered Clouds
4:55 PM 79.3 °F - 57.9 °F 48% 30.06 in 10.0 mi ENE 12.7 mph 23.0 mph N/A Thunderstorm Thunderstorm
5:15 PM 67.6 °F - 61.7 °F 81% 30.09 in 1.8 mi NW 5.8 mph 17.3 mph 0.35 in Thunderstorm Thunderstorm
5:35 PM 65.7 °F - 60.1 °F 82% 30.08 in 10.0 mi WSW 13.8 mph 17.3 mph 0.37 in Thunderstorm Thunderstorm
5:55 PM 65.8 °F - 59.7 °F 81% 30.08 in 10.0 mi WSW 9.2 mph - 0.37 in Thunderstorm Mostly Cloudy
6:15 PM 66.7 °F - 60.4 °F 80% 30.08 in 10.0 mi WSW 11.5 mph 17.3 mph N/A Thunderstorm Thunderstorm
6:35 PM 69.4 °F - 59.9 °F 72% 30.07 in 10.0 mi WSW 9.2 mph - N/A   Scattered Clouds
6:55 PM 70.9 °F - 60.8 °F 70% 30.07 in 10.0 mi WSW 4.6 mph - N/A   Mostly Cloudy
7:15 PM 71.2 °F - 61.0 °F 70% 30.07 in 10.0 mi WSW 3.5 mph - N/A Thunderstorm Mostly Cloudy
7:35 PM 71.6 °F - 61.0 °F 69% 30.08 in 10.0 mi Calm Calm - N/A   Mostly Cloudy
7:55 PM 71.8 °F - 61.5 °F 70% 30.08 in 10.0 mi North 4.6 mph - N/A   Overcast
8:15 PM 69.4 °F - 64.4 °F 84% 30.08 in 10.0 mi Calm Calm - N/A Thunderstorm Mostly Cloudy
8:35 PM 69.4 °F - 63.3 °F 81% 30.08 in 10.0 mi Calm Calm - N/A   Mostly Cloudy
8:55 PM 69.4 °F - 64.8 °F 85% 30.08 in 10.0 mi South 8.1 mph - N/A   Mostly Cloudy
9:15 PM 69.4 °F - 64.6 °F 84% 30.09 in 10.0 mi Calm Calm - N/A   Mostly Cloudy
9:35 PM 69.6 °F - 64.8 °F 84% 30.09 in 10.0 mi West 3.5 mph - N/A   Mostly Cloudy
9:55 PM 70.3 °F - 62.4 °F 76% 30.10 in 10.0 mi Calm Calm - N/A   Scattered Clouds
10:15 PM 71.8 °F - 61.7 °F 70% 30.10 in 10.0 mi Calm Calm - N/A   Clear
10:35 PM 71.1 °F - 61.7 °F 72% 30.11 in 10.0 mi ENE 4.6 mph - N/A   Clear
10:55 PM 70.7 °F - 61.2 °F 72% 30.12 in 10.0 mi East 9.2 mph - N/A   Scattered Clouds
11:15 PM 71.6 °F - 60.3 °F 67% 30.12 in 10.0 mi ESE 10.4 mph - N/A   Clear
11:35 PM 71.1 °F - 59.9 °F 68% 30.11 in 10.0 mi SE 19.6 mph - N/A   Clear
11:55 PM 68.9 °F - 59.9 °F 73% 30.11 in 10.0 mi SE 11.5 mph 18.4 mph N/A   Clear